Location: Hokitika
(42.7170°S, 170.9670°E)
Time: 14:43:28
(UTC+13:00)

BREEZE-M DEB (TANK) - Pass Details

Date: 24 January 2019
Orbit: 301 x 13847 km, 49.6° (Epoch: 14 February)

Event Time Altitude Azimuth Distance (km) Brightness Sun altitude
Rises 23:35:13 0° 279° (W) 5,683 8.3 -20.9°
Reaches altitude 10° 23:40:40 10° 272° (W) 3,248 7.1 -21.5°
Maximum altitude 23:46:31 37° 204° (SSW) 879 4.4 -22.0°
Enters shadow 23:48:55 12° 133° (SE) 1,347 4.9 -22.3°
